Wind_Speed
15 15 13 11 7 6 5 4 7 6 3 2 4 5 7 10 13 15 16 17 17 20 24 20 19 16 16 18 15 17 18 19 19 18 19 21 22 23 24 27 30 32 33 35 37
16 16 14 11 9 7 9 10 8 4 2 2 5 6 10 12 14 14 15 16 17 20 22 22 23 17 13 16 9 8 9 9 11 12 11 13 15 18 20 24 28 32 34 37 40
20 16 14 11 13 14 10 8 5 3 4 6 6 9 12 13 13 13 15 13 22 22 23 23 23 19 13 11 12 17 20 19 14 11 12 13 14 15 18 20 24 28 29 34 38
19 17 14 14 16 11 6 7 6 8 7 6 5 10 12 12 12 14 14 16 23 29 28 26 28 27 17 18 15 16 23 26 31 20 20 24 22 25 28 28 31 31 36 35 39
20 17 16 15 14 8 8 6 7 6 4 4 8 10 9 12 13 14 14 18 25 29 33 37 36 34 32 29 24 25 30 38 34 26 25 28 26 26 26 24 26 29 31 34 38
19 17 17 14 12 9 6 5 4 6 3 7 8 10 9 14 15 15 16 19 25 32 39 40 42 40 35 35 30 33 35 36 33 34 35 33 33 35 39 42 42 41 44 45 44
22 18 18 16 10 8 5 2 2 3 5 9 9 10 12 14 17 18 19 23 28 33 37 41 41 41 35 31 30 35 36 34 35 36 37 40 45 45 46 46 47 54 58 61 65
21 18 17 15 11 8 6 3 1 2 7 9 12 17 19 22 23 25 28 27 29 34 39 42 40 39 32 28 29 33 32 35 36 36 38 45 44 49 50 53 58 64 67 66 71
23 18 15 14 11 9 7 3 3 2 6 9 11 14 20 19 21 26 30 34 36 37 40 43 40 36 31 25 27 33 36 38 32 38 41 41 48 52 52 57 62 70 71 75 76
23 20 17 14 12 11 8 6 7 8 7 11 8 8 14 16 21 25 30 33 38 41 42 42 38 37 30 25 27 28 31 33 33 36 41 44 49 53 60 63 70 73 75 75 78
25 21 16 14 14 13 11 10 10 10 12 9 4 6 11 15 21 26 31 35 39 41 41 39 39 39 38 34 29 30 35 41 40 45 49 54 57 63 66 71 73 79 79 82 86
26 22 18 16 14 14 13 11 11 9 7 6 5 6 11 15 19 24 30 34 38 39 40 41 38 38 39 40 42 39 40 41 45 50 52 52 56 59 69 75 75 76 80 84 86
26 22 19 18 14 15 14 10 7 6 4 4 5 8 11 16 19 24 28 31 35 38 40 42 40 41 39 43 46 44 38 42 45 48 51 49 53 60 69 72 76 82 87 86 89
26 24 21 19 16 14 13 10 6 4 2 5 7 9 13 15 19 23 27 31 32 36 38 41 42 43 40 41 47 47 44 44 47 50 52 53 55 66 72 77 84 90 93 92 98
30 27 21 19 18 15 12 8 5 4 2 4 8 8 11 17 20 24 27 30 32 34 37 41 44 46 45 45 47 47 45 47 51 52 54 57 61 67 72 82 88 90 92 98 103
33 29 23 22 20 16 14 9 4 4 4 3 8 12 16 17 22 25 27 29 32 34 38 40 44 47 49 48 48 48 48 48 52 54 55 60 65 70 79 83 91 94 97 100 106
33 31 26 24 21 18 13 11 8 4 3 3 8 13 17 21 23 25 26 27 29 34 38 41 43 46 51 50 50 51 49 48 52 55 59 59 67 77 79 86 93 94 98 104 106
33 32 30 27 23 18 14 12 8 7 5 6 11 14 18 22 22 24 25 29 31 36 38 41 45 47 51 51 52 53 51 52 55 59 62 65 72 77 82 89 97 101 107 113 116
34 34 33 30 26 19 15 12 10 9 8 10 13 15 19 22 25 24 26 29 33 37 40 41 45 48 52 51 53 53 51 52 55 62 63 69 74 78 84 93 100 104 109 112 113
36 36 36 32 30 26 18 14 12 11 12 12 14 17 21 24 24 26 27 31 33 37 41 43 46 48 52 51 55 56 54 55 63 67 71 75 75 85 94 99 106 108 114 119 124
38 38 37 32 30 27 20 15 12 10 13 12 14 20 23 22 25 26 30 32 34 38 41 44 46 48 50 53 57 57 58 60 65 71 75 77 81 88 98 102 107 111 113 118 125
39 37 34 31 28 24 18 15 11 10 10 13 15 21 19 23 26 27 30 33 35 38 41 44 47 50 51 54 59 60 61 61 66 72 76 80 83 93 101 108 107 111 117 124 128
40 36 32 29 27 23 19 17 16 14 15 19 22 22 21 24 26 29 31 33 35 38 41 44 46 51 53 56 60 60 61 63 65 70 77 86 93 99 103 110 112 116 121 128 133
43 39 36 33 29 25 23 21 21 21 19 20 22 23 23 25 27 30 32 33 36 40 42 45 48 53 54 58 59 61 64 69 68 72 80 87 95 100 106 112 112 116 120 122 138
46 43 40 36 34 31 28 26 24 22 23 22 25 26 24 26 29 30 35 35 37 40 43 47 49 55 56 59 61 65 66 72 73 74 81 87 94 101 108 112 116 120 124 129 134
51 46 43 40 36 33 30 27 25 26 27 29 28 27 27 30 34 37 35 39 38 41 43 47 49 55 58 60 63 66 66 72 74 76 80 86 94 102 111 113 124 125 130 132 132
53 47 44 42 39 34 31 29 28 29 29 25 28 29 30 33 35 40 39 40 39 41 44 46 48 54 58 60 63 65 64 69 75 77 81 87 95 103 113 116 116 126 129 134 140
Wind_Direction
177 190 207 173 138 137 138 144 142 141 134 67 15 359 1 354 352 346 340 341 342 351 1 356 348 333 314 315 313 313 301 297 288 285 289 289 287 283 284 286 288 290 289 286 283
184 173 152 151 151 136 139 136 141 155 67 17 26 24 13 358 1 356 356 14 8 3 11 11 4 358 341 342 350 23 32 26 10 340 316 303 302 302 301 297 292 286 284 283 282
163 156 161 158 143 130 119 128 119 66 42 46 39 28 8 356 0 358 352 21 9 14 11 14 19 15 11 16 43 40 39 32 36 21 15 360 346 344 337 331 325 319 306 302 296
166 170 165 152 159 159 110 84 76 19 19 26 37 21 11 6 8 360 11 18 23 18 20 26 32 34 37 39 50 51 45 45 39 29 14 16 9 357 347 343 326 333 319 308 305
173 174 160 156 168 164 112 83 48 19 37 71 22 19 14 9 4 9 15 17 23 23 26 29 28 31 34 38 42 37 32 29 27 23 13 6 358 350 343 333 328 322 321 308 302
179 178 167 158 154 143 105 73 26 22 66 44 24 15 14 9 27 25 26 29 25 22 25 26 29 26 29 32 34 30 21 24 18 13 15 7 1 353 351 351 342 333 332 328 329
181 177 175 172 167 156 125 108 32 6 44 43 30 44 46 47 38 40 38 31 24 21 22 26 28 26 25 30 32 29 31 25 18 7 7 2 353 355 345 342 343 340 337 342 338
184 175 174 177 187 182 160 174 42 124 49 65 81 77 62 54 50 46 40 32 27 23 22 22 25 24 26 30 30 31 19 10 6 0 358 353 352 353 353 349 348 343 340 339 339
181 173 174 174 162 160 168 162 103 85 67 97 96 72 66 55 48 39 37 35 29 26 22 21 22 23 22 22 23 11 7 360 4 357 2 353 354 352 348 345 344 342 339 336 335
177 169 173 170 165 165 158 136 110 81 90 111 93 66 39 42 37 32 30 26 23 22 20 20 21 21 16 8 358 356 353 358 354 353 353 350 346 347 347 345 344 341 340 337 330
178 172 180 171 167 159 147 133 107 101 114 124 90 22 11 21 27 26 25 24 22 20 17 16 17 16 16 12 356 341 343 350 350 351 348 348 347 346 346 345 343 341 339 333 330
182 177 181 177 175 165 151 139 128 127 116 104 51 17 4 9 13 21 17 18 16 17 13 11 9 12 12 9 3 348 350 354 352 350 348 346 342 345 347 345 344 341 336 334 331
186 182 182 180 176 166 168 159 161 142 84 52 37 9 355 356 6 12 11 10 10 10 9 5 2 2 1 4 6 359 351 345 346 346 344 343 344 345 348 348 344 341 340 336 331
186 186 180 183 179 172 161 165 186 208 316 345 351 4 4 349 352 1 3 4 9 6 6 3 2 2 1 360 1 357 352 351 350 349 345 345 348 343 343 342 343 340 337 336 335
190 191 183 189 188 186 174 168 151 196 245 343 349 340 347 351 341 352 357 3 4 0 360 360 1 0 359 359 357 356 354 354 351 351 351 347 347 342 342 345 342 340 339 340 339
198 198 192 195 193 197 199 197 161 160 239 319 352 357 352 344 346 348 352 355 357 357 358 358 356 358 357 357 356 355 354 351 350 349 350 346 345 344 342 341 342 342 339 339 337
201 198 196 199 202 200 203 211 211 222 278 303 335 345 350 348 347 350 354 352 351 351 353 353 352 354 355 355 353 352 351 352 352 350 350 347 345 342 341 341 341 342 342 342 340
202 198 199 200 199 202 203 199 209 234 260 313 329 334 340 348 346 346 350 349 349 346 346 348 351 351 352 352 352 350 350 349 350 349 350 346 342 343 342 342 345 345 343 341 339
200 201 201 201 205 204 199 199 222 248 274 308 311 316 328 334 344 342 344 344 345 343 343 345 351 349 349 348 350 348 347 346 348 348 348 344 343 342 341 344 345 344 342 340 341
202 205 205 207 210 213 218 218 232 247 270 295 301 312 316 323 327 337 340 341 340 339 344 343 347 347 349 344 348 348 346 346 345 346 348 346 345 346 346 345 343 346 345 344 344
205 206 207 210 213 217 220 223 234 253 275 293 304 314 317 319 322 329 335 339 339 339 341 343 342 344 346 344 347 345 345 345 346 346 347 347 347 347 347 345 347 347 345 345 351
205 203 205 210 215 219 222 223 238 265 283 298 314 322 322 320 321 326 332 335 338 340 340 341 341 342 344 343 346 345 346 345 347 348 348 348 349 349 347 347 347 349 351 351 349
203 203 204 206 211 217 221 229 238 265 287 288 298 302 314 324 326 328 333 333 335 339 338 340 339 341 343 343 344 344 344 344 346 348 348 349 349 349 345 348 345 348 349 347 350
207 206 205 206 211 215 223 235 251 265 279 285 300 302 308 314 325 328 329 330 333 338 339 340 336 338 342 342 344 342 344 345 345 345 346 346 345 347 344 347 348 349 349 353 351
212 212 212 216 222 226 234 242 255 265 267 279 297 301 308 314 321 330 329 328 330 335 335 338 337 338 341 343 343 344 346 347 345 342 343 345 346 344 344 349 351 352 350 348 350
214 218 220 224 228 233 241 247 254 263 269 281 289 294 302 310 316 321 326 327 329 333 334 338 336 338 340 343 344 345 345 344 345 346 346 346 347 347 345 347 349 350 354 353 353
215 218 219 221 225 230 238 244 250 262 275 286 288 294 302 307 312 317 322 323 328 331 333 335 335 339 339 343 345 345 343 345 347 347 347 345 346 347 348 351 350 353 353 351 353
Height
10862 10865 10867 10869 10871 10873 10874 10876 10877 10877 10877 10877 10877 10876 10874 10872 10869 10866 10862 10858 10853 10847 10840 10833 10828 10822 10816 10812 10808 10803 10798 10794 10791 10789 10787 10785 10784 10781 10778 10775 10772 10770 10767 10762 10758
10859 10863 10866 10869 10871 10873 10874 10875 10876 10877 10877 10876 10876 10875 10873 10870 10868 10864 10861 10858 10852 10846 10840 10832 10825 10818 10813 10808 10804 10799 10795 10790 10787 10784 10782 10779 10777 10775 10773 10770 10767 10763 10759 10755 10751
10858 10862 10865 10869 10872 10873 10874 10875 10875 10876 10876 10875 10874 10873 10872 10869 10867 10863 10860 10856 10851 10845 10839 10832 10824 10817 10812 10806 10802 10796 10791 10787 10784 10782 10779 10777 10776 10772 10768 10765 10761 10756 10752 10747 10740
10857 10861 10865 10868 10871 10873 10874 10874 10875 10875 10875 10874 10874 10873 10871 10868 10866 10863 10859 10855 10850 10844 10837 10830 10825 10818 10811 10805 10800 10796 10792 10789 10785 10781 10778 10775 10773 10768 10765 10762 10757 10752 10748 10742 10736
10857 10860 10864 10868 10870 10872 10873 10874 10874 10874 10874 10873 10873 10872 10871 10868 10865 10862 10859 10854 10849 10843 10836 10829 10822 10816 10810 10804 10801 10797 10791 10786 10782 10782 10778 10776 10772 10768 10764 10759 10754 10749 10743 10738 10731
10856 10859 10863 10867 10869 10871 10872 10873 10874 10874 10874 10874 10873 10872 10870 10868 10864 10861 10858 10854 10849 10843 10835 10828 10821 10814 10808 10805 10800 10795 10789 10784 10782 10778 10773 10770 10765 10761 10757 10750 10743 10738 10731 10725 10717
10855 10858 10863 10865 10867 10869 10871 10872 10873 10874 10874 10873 10873 10872 10871 10868 10864 10862 10859 10854 10848 10842 10834 10826 10819 10813 10809 10804 10799 10795 10790 10786 10780 10775 10769 10763 10759 10753 10749 10744 10737 10729 10721 10706 10696
10853 10857 10862 10864 10866 10868 10869 10871 10872 10873 10873 10873 10873 10873 10870 10867 10865 10863 10858 10853 10848 10841 10832 10825 10818 10813 10807 10803 10799 10794 10788 10784 10778 10774 10766 10761 10755 10748 10742 10735 10726 10715 10705 10695 10684
10852 10856 10860 10863 10865 10867 10869 10869 10871 10872 10873 10873 10873 10872 10870 10867 10865 10861 10857 10851 10845 10838 10832 10825 10818 10812 10807 10803 10798 10793 10787 10781 10776 10771 10766 10759 10751 10743 10735 10725 10716 10703 10693 10679 10669
10850 10855 10858 10861 10863 10866 10868 10869 10870 10871 10872 10872 10872 10871 10869 10867 10864 10860 10854 10848 10843 10836 10830 10825 10819 10813 10807 10802 10797 10792 10787 10781 10776 10770 10762 10754 10746 10736 10725 10714 10703 10692 10680 10666 10656
10849 10853 10857 10859 10862 10865 10867 10868 10870 10871 10871 10872 10871 10870 10868 10866 10862 10857 10853 10847 10840 10834 10828 10822 10817 10812 10808 10803 10797 10791 10784 10777 10770 10762 10753 10742 10732 10724 10715 10704 10694 10679 10666 10655 10639
10846 10851 10855 10858 10860 10864 10866 10867 10869 10870 10870 10870 10870 10868 10866 10864 10860 10855 10850 10845 10839 10833 10826 10821 10815 10810 10805 10801 10795 10788 10780 10771 10762 10754 10749 10740 10729 10720 10709 10697 10682 10670 10657 10641 10623
10844 10848 10853 10856 10858 10862 10864 10866 10867 10868 10869 10869 10868 10866 10864 10862 10858 10853 10849 10844 10838 10832 10825 10819 10814 10807 10802 10796 10790 10783 10776 10768 10761 10753 10743 10737 10722 10711 10700 10686 10675 10660 10643 10628 10612
10841 10846 10850 10854 10857 10860 10862 10864 10865 10866 10867 10867 10866 10864 10862 10859 10856 10851 10847 10842 10836 10831 10824 10819 10812 10805 10799 10794 10787 10780 10772 10763 10754 10744 10735 10725 10718 10701 10691 10679 10663 10647 10632 10613 10593
10838 10843 10848 10851 10854 10858 10860 10862 10863 10864 10865 10865 10864 10862 10860 10857 10854 10850 10845 10840 10834 10829 10822 10816 10809 10802 10795 10789 10782 10775 10766 10756 10747 10736 10727 10715 10708 10696 10683 10667 10651 10634 10615 10595 10574
10835 10840 10845 10849 10851 10855 10858 10860 10861 10862 10863 10863 10861 10860 10857 10854 10851 10847 10842 10837 10832 10826 10820 10813 10805 10798 10790 10784 10777 10768 10760 10751 10743 10732 10722 10711 10698 10688 10672 10656 10639 10620 10599 10578 10554
10832 10837 10842 10846 10849 10852 10855 10857 10859 10860 10860 10860 10859 10857 10855 10852 10848 10845 10840 10835 10830 10823 10816 10810 10802 10795 10787 10780 10772 10763 10755 10747 10737 10728 10714 10702 10689 10676 10663 10645 10626 10606 10584 10561 10537
10829 10834 10838 10843 10846 10849 10852 10854 10856 10857 10858 10857 10856 10854 10852 10849 10846 10842 10837 10832 10826 10820 10813 10806 10799 10791 10783 10775 10767 10757 10745 10736 10728 10720 10706 10694 10684 10669 10652 10634 10612 10589 10567 10543 10515
10824 10830 10834 10839 10843 10846 10849 10851 10853 10854 10854 10854 10853 10851 10849 10845 10842 10839 10834 10829 10823 10817 10810 10802 10795 10786 10779 10770 10762 10753 10743 10732 10724 10714 10705 10691 10677 10660 10642 10621 10598 10575 10550 10522 10496
10820 10825 10830 10834 10839 10842 10845 10848 10849 10851 10851 10851 10849 10847 10845 10842 10839 10835 10830 10825 10820 10813 10805 10798 10790 10782 10774 10765 10757 10746 10736 10727 10714 10703 10694 10678 10661 10646 10626 10606 10583 10558 10533 10509 10480
10815 10820 10825 10830 10834 10838 10841 10844 10846 10847 10848 10847 10845 10843 10841 10838 10835 10831 10826 10822 10815 10808 10801 10793 10786 10778 10769 10760 10751 10741 10730 10720 10708 10692 10679 10670 10652 10633 10614 10594 10569 10545 10520 10491 10462
10810 10815 10821 10825 10830 10834 10837 10839 10842 10843 10843 10842 10841 10839 10837 10834 10830 10827 10822 10817 10810 10804 10796 10788 10781 10773 10764 10754 10744 10732 10722 10711 10700 10688 10670 10655 10645 10624 10602 10581 10557 10531 10504 10473 10441
10806 10812 10817 10822 10826 10830 10833 10836 10837 10838 10838 10838 10837 10835 10832 10829 10826 10822 10817 10811 10806 10799 10791 10784 10776 10768 10758 10747 10737 10727 10717 10706 10693 10678 10662 10641 10625 10609 10590 10567 10543 10517 10489 10463 10433
10801 10807 10812 10818 10822 10826 10829 10831 10833 10834 10834 10833 10832 10831 10828 10824 10821 10817 10812 10807 10801 10794 10786 10779 10771 10763 10753 10743 10733 10722 10710 10697 10683 10669 10654 10637 10617 10599 10579 10557 10532 10507 10481 10451 10420
10796 10801 10807 10813 10817 10821 10824 10827 10828 10829 10829 10828 10828 10826 10823 10819 10815 10812 10807 10802 10796 10789 10782 10773 10765 10756 10747 10736 10725 10713 10701 10688 10675 10662 10646 10632 10613 10593 10573 10548 10524 10499 10469 10437 10407
10790 10796 10802 10807 10812 10816 10819 10822 10823 10824 10824 10824 10823 10821 10818 10814 10810 10806 10803 10797 10791 10784 10777 10769 10761 10751 10741 10729 10717 10706 10695 10683 10670 10656 10641 10625 10609 10585 10563 10539 10513 10487 10458 10428 10396
10784 10790 10796 10801 10806 10811 10813 10815 10817 10819 10819 10819 10818 10816 10813 10809 10804 10800 10796 10792 10786 10779 10772 10764 10756 10748 10736 10725 10715 10704 10692 10678 10664 10650 10634 10618 10600 10579 10556 10530 10505 10479 10449 10418 10387